Location: Caltech
(34.1382°N, 118.1253°W)
Time: 20:36:04
(UTC-07:00)

Cosmos 1833 - Visible Passes

Search period start: 17 September 2014 00:00
Search period end: 27 September 2014 00:00
Orbit: 843 x 856 km, 70.9° (Epoch: 17 September)

Date Brightness Start Highest point End Pass type
(mag) Time Alt. Az. Time Alt. Az. Time Alt. Az.
17 Sep 4.3 20:29:45 10° NNW 20:35:21 54° ENE 20:36:45 43° ESE visible
17 Sep 6.5 22:15:31 10° WNW 22:18:46 17° W 22:18:46 17° W visible
18 Sep 4.3 20:17:07 10° N 20:22:42 54° ENE 20:25:03 33° SE visible
18 Sep 6.5 22:02:51 10° WNW 22:06:24 17° W 22:07:04 17° WSW visible
19 Sep 4.4 20:04:28 10° N 20:10:03 53° ENE 20:13:29 23° SE visible
19 Sep 6.5 21:50:11 10° WNW 21:53:45 17° W 21:55:31 15° WSW visible
20 Sep 4.4 19:51:50 10° N 19:57:25 53° ENE 20:02:05 15° SE visible
20 Sep 6.6 21:37:31 10° WNW 21:41:07 17° W 21:44:08 12° SW visible
21 Sep 4.4 19:39:12 10° N 19:44:46 52° ENE 19:50:19 10° SE visible
21 Sep 6.6 21:24:51 10° WNW 21:28:28 18° W 21:32:06 10° SW visible
22 Sep 4.4 19:26:33 10° N 19:32:07 52° ENE 19:37:40 10° SE visible
22 Sep 6.7 21:12:10 10° WNW 21:15:50 18° W 21:19:30 10° SW visible
23 Sep 4.4 19:13:54 10° N 19:19:28 52° ENE 19:25:01 10° SE visible
23 Sep 6.7 20:59:30 10° WNW 21:03:11 18° W 21:06:53 10° SW visible
24 Sep 6.8 20:46:50 10° WNW 20:50:33 18° W 20:54:16 10° SW visible
25 Sep 6.8 20:34:10 10° WNW 20:37:54 18° W 20:41:39 10° SW visible
26 Sep 6.9 20:21:29 10° WNW 20:25:16 18° W 20:29:02 10° SW visible
